TimeMDT,TemperatureF,Dew PointF,Humidity,Sea Level PressureIn,VisibilityMPH,Wind Direction,Wind SpeedMPH,Gust SpeedMPH,PrecipitationIn,Events,Conditions,WindDirDegrees,DateUTC
12:52 AM,48.0,18.0,30,29.87,10.0,SSE,4.6,-,N/A,,Clear,160,2013-05-26 06:52:00
1:52 AM,45.0,17.1,33,29.87,10.0,SSE,6.9,-,N/A,,Clear,150,2013-05-26 07:52:00
2:52 AM,53.1,17.1,24,29.85,10.0,South,9.2,-,N/A,,Clear,180,2013-05-26 08:52:00
3:52 AM,44.1,19.9,38,29.90,10.0,SE,5.8,-,N/A,,Clear,140,2013-05-26 09:52:00
4:52 AM,52.0,16.0,24,29.87,10.0,SSW,11.5,-,N/A,,Clear,210,2013-05-26 10:52:00
5:52 AM,50.0,15.1,25,29.89,10.0,SSW,12.7,-,N/A,,Clear,200,2013-05-26 11:52:00
6:52 AM,52.0,15.1,23,29.90,10.0,SSW,9.2,-,N/A,,Clear,200,2013-05-26 12:52:00
7:52 AM,54.0,19.9,26,29.93,10.0,SSW,8.1,-,N/A,,Clear,200,2013-05-26 13:52:00
8:52 AM,63.0,15.1,16,29.92,10.0,SSW,10.4,-,N/A,,Clear,200,2013-05-26 14:52:00
9:52 AM,68.0,10.0,11,29.90,10.0,SSW,10.4,-,N/A,,Clear,210,2013-05-26 15:52:00
10:52 AM,71.1,7.0,8,29.90,10.0,South,12.7,23.0,N/A,,Clear,170,2013-05-26 16:52:00
11:10 AM,71.6,3.2,7,30.15,10.0,SSW,13.8,21.9,N/A,,Clear,210,2013-05-26 17:10:00
11:52 AM,72.0,5.0,7,29.90,10.0,South,11.5,16.1,N/A,,Clear,190,2013-05-26 17:52:00
12:52 PM,73.0,8.1,8,29.86,10.0,South,12.7,20.7,N/A,,Clear,190,2013-05-26 18:52:00
1:52 PM,78.1,1.9,5,29.83,10.0,WSW,12.7,26.5,N/A,,Clear,240,2013-05-26 19:52:00
2:52 PM,78.1,1.0,5,29.78,10.0,SW,18.4,29.9,N/A,,Clear,230,2013-05-26 20:52:00
3:52 PM,77.0,3.0,6,29.81,10.0,WSW,20.7,29.9,N/A,,Clear,240,2013-05-26 21:52:00
4:52 PM,75.9,5.0,6,29.78,10.0,SW,20.7,27.6,N/A,,Clear,230,2013-05-26 22:52:00
5:52 PM,75.0,8.1,8,29.78,10.0,WSW,19.6,26.5,N/A,,Clear,250,2013-05-26 23:52:00
6:52 PM,72.0,9.0,9,29.80,10.0,West,20.7,24.2,N/A,,Clear,260,2013-05-27 00:52:00
7:52 PM,66.0,15.1,14,29.83,10.0,West,15.0,-,N/A,,Clear,260,2013-05-27 01:52:00
8:52 PM,57.9,16.0,19,29.83,10.0,West,15.0,-,N/A,,Clear,260,2013-05-27 02:52:00
9:52 PM,54.0,12.9,20,29.84,10.0,West,8.1,-,N/A,,Clear,270,2013-05-27 03:52:00
10:52 PM,45.0,18.0,34,29.88,10.0,SE,4.6,-,N/A,,Clear,130,2013-05-27 04:52:00
11:52 PM,46.0,16.0,30,29.87,10.0,SSE,3.5,-,N/A,,Clear,150,2013-05-27 05:52:00